Kansas City International, MO

12:42 AM CDT on June 23, 2017 (GMT -0500)
Kansas City International

Weather History for KMCI - February, 2014

Change the Weather History Date:

Tuesday, February 25, 2014

  Actual Average Record
Temperature  
Mean Temperature 21 °F 37 °F  
Max Temperature 27 °F 47 °F 77 °F (1995)
Min Temperature 15 °F 27 °F 0 °F (2003)
Degree Days  
Heating Degree Days 44 28  
Month to date heating degree days 1004 800  
Since 1 July heating degree days 4448 3964  
Cooling Degree Days 0 0  
Month to date cooling degree days 0 0  
Year to date cooling degree days 0 0  
Moisture  
Dew Point 11 °F    
Average Humidity 68    
Maximum Humidity 84    
Minimum Humidity 51    
Precipitation  
Precipitation T in 0.06 in 1.03 in (1899)
Month to date precipitation 1.36 1.29  
Year to date precipitation 1.75 2.36  
Snow  
Snow T in 0.20 in 10.50 in (1993)
Month to date snowfall 11.3 5.0  
Since 1 July snowfall 22.6 15.8  
Snow Depth 0.00 in    
Sea Level Pressure  
Sea Level Pressure 30.37 in    
Wind  
Wind Speed 12 mph (North)    
Max Wind Speed 22 mph    
Max Gust Speed 27 mph    
Visibility 10 miles    
Events Snow    
T = Trace of Precipitation, MM = Missing Value Source: NWS Daily Summary

Daily Weather History Graph

Daily Weather History Graph

Search for Another Location

Airport or City:

Trip Planner

Search our weather history database for the weather conditions in past years. The results will help you decide how hot, cold, wet, or windy it might be!

Date:

Astronomy

Feb. 25, 2014 Rise Set
Actual Time 6:57 AM CST 6:07 PM CST
Civil Twilight 6:30 AM CST 6:34 PM CST
Nautical Twilight 5:59 AM CST 7:05 PM CST
Astronomical Twilight 5:28 AM CST 7:36 PM CST
Moon 3:51 AM CST (2/25) 2:14 PM CST (2/25)
Length of Visible Light 12h 03m
Length of Day
11h 09m
Waning Crescent, 18% of the Moon is Illuminated
Feb 25
Waning Crescent
Mar 1
New
Mar 8
First Quarter
Mar 16
Full
Mar 23
Last Quarter

Hourly Weather History & Observations

Time (CST) Temp. Windchill Dew Point Humidity Pressure Visibility Wind Dir Wind Speed Gust Speed Precip Events Conditions
12:53 AM 26.1 °F 17.6 °F 16.0 °F 66% 30.28 in 10.0 mi North 8.1 mph - N/A   Mostly Cloudy
1:53 AM 27.0 °F 19.5 °F 16.0 °F 63% 30.30 in 10.0 mi North 6.9 mph - N/A   Overcast
2:53 AM 26.1 °F 18.4 °F 15.1 °F 63% 30.31 in 10.0 mi North 6.9 mph - N/A   Overcast
3:53 AM 24.1 °F 15.2 °F 15.1 °F 69% 30.31 in 10.0 mi North 8.1 mph - N/A   Overcast
4:53 AM 25.0 °F 17.1 °F 16.0 °F 69% 30.31 in 10.0 mi North 6.9 mph - N/A   Scattered Clouds
5:53 AM 24.1 °F 13.7 °F 16.0 °F 71% 30.32 in 10.0 mi North 10.4 mph - N/A   Overcast
6:17 AM 21.9 °F 13.4 °F 16.0 °F 78% 30.29 in 10.0 mi North 6.9 mph - N/A   Scattered Clouds
6:53 AM 21.9 °F 12.5 °F 17.1 °F 82% 30.31 in 10.0 mi North 8.1 mph - N/A   Mostly Cloudy
7:37 AM 23.0 °F 11.7 °F 18.0 °F 81% 30.29 in 10.0 mi North 11.5 mph - N/A   Mostly Cloudy
7:53 AM 24.1 °F 11.0 °F 17.1 °F 75% 30.33 in 10.0 mi NNE 16.1 mph - N/A   Overcast
8:53 AM 23.0 °F 10.1 °F 14.0 °F 68% 30.35 in 9.0 mi NNE 15.0 mph - 0.00 in Snow Light Snow
9:53 AM 21.9 °F 8.7 °F 12.0 °F 66% 30.37 in 9.0 mi North 15.0 mph - 0.00 in Snow Light Snow
10:53 AM 23.0 °F 11.7 °F 12.0 °F 63% 30.41 in 9.0 mi NNE 11.5 mph - 0.00 in Snow Light Snow
11:53 AM 25.0 °F 13.1 °F 10.9 °F 55% 30.42 in 10.0 mi North 13.8 mph - 0.00 in   Overcast
12:53 PM 24.1 °F 12.5 °F 10.0 °F 55% 30.41 in 10.0 mi NNW 12.7 mph 24.2 mph N/A   Overcast
1:53 PM 21.0 °F 9.3 °F 9.0 °F 60% 30.39 in 10.0 mi North 11.5 mph - N/A   Overcast
2:53 PM 21.9 °F 9.8 °F 8.1 °F 55% 30.37 in 10.0 mi North 12.7 mph - N/A   Overcast
3:53 PM 21.0 °F 8.6 °F 6.1 °F 53% 30.37 in 10.0 mi North 12.7 mph - N/A   Overcast
4:53 PM 19.0 °F 6.8 °F 5.0 °F 54% 30.36 in 10.0 mi North 11.5 mph - N/A   Overcast
5:53 PM 18.0 °F 4.8 °F 7.0 °F 62% 30.38 in 9.0 mi North 12.7 mph - 0.00 in Snow Light Snow
6:51 PM 17.6 °F 4.3 °F 8.6 °F 68% 30.36 in 9.0 mi NNW 12.7 mph - 0.00 in   Overcast
6:53 PM 17.1 °F 3.0 °F 8.1 °F 68% 30.41 in 9.0 mi NNW 13.8 mph - 0.00 in Snow Light Snow
7:24 PM 16.0 °F 1.7 °F 7.0 °F 68% 30.38 in 10.0 mi NNW 13.8 mph - 0.00 in   Overcast
7:53 PM 16.0 °F 0.1 °F 6.1 °F 65% 30.44 in 6.0 mi North 17.3 mph - 0.00 in Snow Light Snow
8:53 PM 15.1 °F 1.1 °F 6.1 °F 68% 30.46 in 9.0 mi NW 12.7 mph - 0.00 in   Overcast
9:53 PM 16.0 °F 2.9 °F 5.0 °F 62% 30.48 in 10.0 mi NW 11.5 mph - N/A   Overcast
10:53 PM 16.0 °F 4.4 °F 6.1 °F 65% 30.49 in 10.0 mi NNW 9.2 mph - N/A   Overcast
11:53 PM 16.0 °F -0.4 °F -0.0 °F 49% 30.48 in 10.0 mi NNW 18.4 mph - N/A   Mostly Cloudy